Year,Month,Day,Hour,Minute,Value (Times are PST for temperature in C)
2016,12,12,00,00,3.40
2016,12,12,00,01,3.40
2016,12,12,00,02,3.40
2016,12,12,00,03,3.40
2016,12,12,00,04,3.30
2016,12,12,00,05,3.30
2016,12,12,00,06,3.30
2016,12,12,00,07,3.30
2016,12,12,00,08,3.30
2016,12,12,00,09,3.30
2016,12,12,00,10,3.30
2016,12,12,00,11,3.30
2016,12,12,00,12,3.30
2016,12,12,00,13,3.30
2016,12,12,00,14,3.20
2016,12,12,00,15,3.20
2016,12,12,00,16,3.20
2016,12,12,00,17,3.20
2016,12,12,00,18,3.20
2016,12,12,00,19,3.10
2016,12,12,00,20,3.10
2016,12,12,00,21,3.10
2016,12,12,00,22,3.10
2016,12,12,00,23,3.00
2016,12,12,00,24,3.00
2016,12,12,00,25,2.90
2016,12,12,00,26,2.90
2016,12,12,00,27,2.90
2016,12,12,00,28,2.90
2016,12,12,00,29,2.90
2016,12,12,00,30,2.90
2016,12,12,00,31,2.80
2016,12,12,00,32,2.80
2016,12,12,00,33,2.80
2016,12,12,00,34,2.80
2016,12,12,00,35,2.80
2016,12,12,00,36,2.80
2016,12,12,00,37,2.70
2016,12,12,00,38,2.70
2016,12,12,00,39,2.70
2016,12,12,00,40,2.70
2016,12,12,00,41,2.70
2016,12,12,00,42,2.70
2016,12,12,00,43,2.70
2016,12,12,00,44,2.70
2016,12,12,00,45,2.70
2016,12,12,00,46,2.70
2016,12,12,00,47,2.70
2016,12,12,00,48,2.70
2016,12,12,00,49,2.70
2016,12,12,00,50,2.70
2016,12,12,00,51,2.60
2016,12,12,00,52,2.60
2016,12,12,00,53,2.60
2016,12,12,00,54,2.60
2016,12,12,00,55,2.60
2016,12,12,00,56,2.60
2016,12,12,00,57,2.60
2016,12,12,00,58,2.60
2016,12,12,00,59,2.60
2016,12,12,01,00,2.60
2016,12,12,01,01,2.60
2016,12,12,01,02,2.60
2016,12,12,01,03,2.60
2016,12,12,01,04,2.60
2016,12,12,01,05,2.60
2016,12,12,01,06,2.60
2016,12,12,01,07,2.60
2016,12,12,01,08,2.60
2016,12,12,01,09,2.60
2016,12,12,01,10,2.60
2016,12,12,01,11,2.60
2016,12,12,01,12,2.70
2016,12,12,01,13,2.70
2016,12,12,01,14,2.70
2016,12,12,01,15,2.70
2016,12,12,01,16,2.70
2016,12,12,01,17,2.70
2016,12,12,01,18,2.70
2016,12,12,01,19,2.70
2016,12,12,01,20,2.70
2016,12,12,01,21,2.70
2016,12,12,01,22,2.70
2016,12,12,01,23,2.70
2016,12,12,01,24,2.60
2016,12,12,01,25,2.60
2016,12,12,01,26,2.60
2016,12,12,01,27,2.60
2016,12,12,01,28,2.60
2016,12,12,01,29,2.60
2016,12,12,01,30,2.60
2016,12,12,01,31,2.60
2016,12,12,01,32,2.60
2016,12,12,01,33,2.60
2016,12,12,01,34,2.60
2016,12,12,01,35,2.60
2016,12,12,01,36,2.60
2016,12,12,01,37,2.60
2016,12,12,01,38,2.70
2016,12,12,01,39,2.80
2016,12,12,01,40,2.80
2016,12,12,01,41,2.80
2016,12,12,01,42,2.80
2016,12,12,01,43,2.80
2016,12,12,01,44,2.90
2016,12,12,01,45,3.00
2016,12,12,01,46,3.10
2016,12,12,01,47,3.20
2016,12,12,01,48,3.30
2016,12,12,01,49,3.40
2016,12,12,01,50,3.40
2016,12,12,01,51,3.50
2016,12,12,01,52,3.60
2016,12,12,01,53,3.70
2016,12,12,01,54,3.70
2016,12,12,01,55,3.80
2016,12,12,01,56,3.80
2016,12,12,01,57,3.90
2016,12,12,01,58,4.00
2016,12,12,01,59,4.00
2016,12,12,02,00,4.10
2016,12,12,02,01,4.10
2016,12,12,02,02,4.20
2016,12,12,02,03,4.20
2016,12,12,02,04,4.30
2016,12,12,02,05,4.30
2016,12,12,02,06,4.30
2016,12,12,02,07,4.30
2016,12,12,02,08,4.30
2016,12,12,02,09,4.40
2016,12,12,02,10,4.40
2016,12,12,02,11,4.40
2016,12,12,02,12,4.40
2016,12,12,02,13,4.40
2016,12,12,02,14,4.40
2016,12,12,02,15,4.40
2016,12,12,02,16,4.40
2016,12,12,02,17,4.40
2016,12,12,02,18,4.40
2016,12,12,02,19,4.40
2016,12,12,02,20,4.40
2016,12,12,02,21,4.40
2016,12,12,02,22,4.40
2016,12,12,02,23,4.40
2016,12,12,02,24,4.40
2016,12,12,02,25,4.40
2016,12,12,02,26,4.40
2016,12,12,02,27,4.40
2016,12,12,02,28,4.40
2016,12,12,02,29,4.40
2016,12,12,02,30,4.40
2016,12,12,02,31,4.40
2016,12,12,02,32,4.50
2016,12,12,02,33,4.50
2016,12,12,02,34,4.50
2016,12,12,02,35,4.50
2016,12,12,02,36,4.50
2016,12,12,02,37,4.50
2016,12,12,02,38,4.50
2016,12,12,02,39,4.50
2016,12,12,02,40,4.50
2016,12,12,02,41,4.50
2016,12,12,02,42,4.50
2016,12,12,02,43,4.50
2016,12,12,02,44,4.50
2016,12,12,02,45,4.50
2016,12,12,02,46,4.40
2016,12,12,02,47,4.40
2016,12,12,02,48,4.40
2016,12,12,02,49,4.40
2016,12,12,02,50,4.40
2016,12,12,02,51,4.40
2016,12,12,02,52,4.40
2016,12,12,02,53,4.40
2016,12,12,02,54,4.40
2016,12,12,02,55,4.40
2016,12,12,02,56,4.40
2016,12,12,02,57,4.40
2016,12,12,02,58,4.40
2016,12,12,02,59,4.40
2016,12,12,03,00,4.40
2016,12,12,03,01,4.40
2016,12,12,03,02,4.40
2016,12,12,03,03,4.40
2016,12,12,03,04,4.40
2016,12,12,03,05,4.40
2016,12,12,03,06,4.40
2016,12,12,03,07,4.40
2016,12,12,03,08,4.40
2016,12,12,03,09,4.40
2016,12,12,03,10,4.40
2016,12,12,03,11,4.40
2016,12,12,03,12,4.40
2016,12,12,03,13,4.30
2016,12,12,03,14,4.30
2016,12,12,03,15,4.30
2016,12,12,03,16,4.20
2016,12,12,03,17,4.20
2016,12,12,03,18,4.20
2016,12,12,03,19,4.20
2016,12,12,03,20,4.20
2016,12,12,03,21,4.10
2016,12,12,03,22,4.10
2016,12,12,03,23,4.00
2016,12,12,03,24,4.00
2016,12,12,03,25,4.00
2016,12,12,03,26,4.00
2016,12,12,03,27,3.90
2016,12,12,03,28,3.90
2016,12,12,03,29,3.90
2016,12,12,03,30,3.90
2016,12,12,03,31,3.90
2016,12,12,03,32,3.90
2016,12,12,03,33,3.90
2016,12,12,03,34,3.90
2016,12,12,03,35,3.90
2016,12,12,03,36,3.80
2016,12,12,03,37,3.80
2016,12,12,03,38,3.80
2016,12,12,03,39,3.80
2016,12,12,03,40,3.80
2016,12,12,03,41,3.80
2016,12,12,03,42,3.70
2016,12,12,03,43,3.70
2016,12,12,03,44,3.70
2016,12,12,03,45,3.70
2016,12,12,03,46,3.70
2016,12,12,03,47,3.70
2016,12,12,03,48,3.70
2016,12,12,03,49,3.70
2016,12,12,03,50,3.60
2016,12,12,03,51,3.60
2016,12,12,03,52,3.60
2016,12,12,03,53,3.60
2016,12,12,03,54,3.60
2016,12,12,03,55,3.60
2016,12,12,03,56,3.60
2016,12,12,03,57,3.50
2016,12,12,03,58,3.50
2016,12,12,03,59,3.50
2016,12,12,04,00,3.50
2016,12,12,04,01,3.50
2016,12,12,04,02,3.40
2016,12,12,04,03,3.40
2016,12,12,04,04,3.40
2016,12,12,04,05,3.40
2016,12,12,04,06,3.40
2016,12,12,04,07,3.40
2016,12,12,04,08,3.40
2016,12,12,04,09,3.40
2016,12,12,04,10,3.40
2016,12,12,04,11,3.40
2016,12,12,04,12,3.30
2016,12,12,04,13,3.30
2016,12,12,04,14,3.30
2016,12,12,04,15,3.30
2016,12,12,04,16,3.30
2016,12,12,04,17,3.30
2016,12,12,04,18,3.30
2016,12,12,04,19,3.30
2016,12,12,04,20,3.30
2016,12,12,04,21,3.20
2016,12,12,04,22,3.20
2016,12,12,04,23,3.20
2016,12,12,04,24,3.20
2016,12,12,04,25,3.20
2016,12,12,04,26,3.20
2016,12,12,04,27,3.10
2016,12,12,04,28,3.10
2016,12,12,04,29,3.10
2016,12,12,04,30,3.10
2016,12,12,04,31,3.10
2016,12,12,04,32,3.00
2016,12,12,04,33,3.00
2016,12,12,04,34,3.00
2016,12,12,04,35,3.00
2016,12,12,04,36,3.00
2016,12,12,04,37,2.90
2016,12,12,04,38,2.90
2016,12,12,04,39,2.90
2016,12,12,04,40,2.90
2016,12,12,04,41,2.80
2016,12,12,04,42,2.80
2016,12,12,04,43,2.80
2016,12,12,04,44,2.80
2016,12,12,04,45,2.70
2016,12,12,04,46,2.70
2016,12,12,04,47,2.70
2016,12,12,04,48,2.70
2016,12,12,04,49,2.70
2016,12,12,04,50,2.70
2016,12,12,04,51,2.70
2016,12,12,04,52,2.60
2016,12,12,04,53,2.60
2016,12,12,04,54,2.60
2016,12,12,04,55,2.60
2016,12,12,04,56,2.60
2016,12,12,04,57,2.60
2016,12,12,04,58,2.60
2016,12,12,04,59,2.60
2016,12,12,05,00,2.50
2016,12,12,05,01,2.50
2016,12,12,05,02,2.50
2016,12,12,05,03,2.50
2016,12,12,05,04,2.50
2016,12,12,05,05,2.50
2016,12,12,05,06,2.50
2016,12,12,05,07,2.40
2016,12,12,05,08,2.40
2016,12,12,05,09,2.40
2016,12,12,05,10,2.40
2016,12,12,05,11,2.40
2016,12,12,05,12,2.40
2016,12,12,05,13,2.40
2016,12,12,05,14,2.40
2016,12,12,05,15,2.40
2016,12,12,05,16,2.40
2016,12,12,05,17,2.30
2016,12,12,05,18,2.30
2016,12,12,05,19,2.30
2016,12,12,05,20,2.30
2016,12,12,05,21,2.30
2016,12,12,05,22,2.30
2016,12,12,05,23,2.30
2016,12,12,05,24,2.30
2016,12,12,05,25,2.30
2016,12,12,05,26,2.30
2016,12,12,05,27,2.30
2016,12,12,05,28,2.30
2016,12,12,05,29,2.30
2016,12,12,05,30,2.30
2016,12,12,05,31,2.30
2016,12,12,05,32,2.30
2016,12,12,05,33,2.30
2016,12,12,05,34,2.30
2016,12,12,05,35,2.30
2016,12,12,05,36,2.30
2016,12,12,05,37,2.30
2016,12,12,05,38,2.30
2016,12,12,05,39,2.20
2016,12,12,05,40,2.20
2016,12,12,05,41,2.20
2016,12,12,05,42,2.20
2016,12,12,05,43,2.20
2016,12,12,05,44,2.20
2016,12,12,05,45,2.20
2016,12,12,05,46,2.20
2016,12,12,05,47,2.20
2016,12,12,05,48,2.20
2016,12,12,05,49,2.20
2016,12,12,09,29,0.10
2016,12,12,09,30,0.10
2016,12,12,09,31,0.10
2016,12,12,09,32,0.10
2016,12,12,09,33,0.10
2016,12,12,09,34,0.10
2016,12,12,09,35,0.10
2016,12,12,09,36,0.10
2016,12,12,09,37,0.10
2016,12,12,09,38,0.10
2016,12,12,09,39,0.10
2016,12,12,09,40,0.10
2016,12,12,09,41,0.10
2016,12,12,09,42,0.10
2016,12,12,09,43,0.10
2016,12,12,09,44,0.10
2016,12,12,09,45,0.10
2016,12,12,09,46,0.10
2016,12,12,09,47,0.10
2016,12,12,09,48,0.10
2016,12,12,09,49,0.10
2016,12,12,09,50,0.10
2016,12,12,09,51,0.10
2016,12,12,09,52,0.10
2016,12,12,09,53,0.10
2016,12,12,09,54,0.10
2016,12,12,09,55,0.10
2016,12,12,09,56,0.10
2016,12,12,09,57,0.10
2016,12,12,09,58,0.10
2016,12,12,09,59,0.10
2016,12,12,10,00,0.10
2016,12,12,10,01,0.10
2016,12,12,10,02,0.20
2016,12,12,10,03,0.20
2016,12,12,10,04,0.20
2016,12,12,10,05,0.20
2016,12,12,10,06,0.20
2016,12,12,10,07,0.20
2016,12,12,10,08,0.20
2016,12,12,10,09,0.20
2016,12,12,10,10,0.20
2016,12,12,10,11,0.20
2016,12,12,10,12,0.20
2016,12,12,10,13,0.20
2016,12,12,10,14,0.20
2016,12,12,10,15,0.20
2016,12,12,10,16,0.20
2016,12,12,10,17,0.20
2016,12,12,10,18,0.20
2016,12,12,10,19,0.20
2016,12,12,10,20,0.20
2016,12,12,10,21,0.20
2016,12,12,10,22,0.20
2016,12,12,10,23,0.20
2016,12,12,10,24,0.20
2016,12,12,10,25,0.20
2016,12,12,10,26,0.20
2016,12,12,10,27,0.20
2016,12,12,10,28,0.20
2016,12,12,10,29,0.20
2016,12,12,10,30,0.20
2016,12,12,10,31,0.20
2016,12,12,10,32,0.20
2016,12,12,10,33,0.20
2016,12,12,10,34,0.20
2016,12,12,10,35,0.20
2016,12,12,10,36,0.20
2016,12,12,10,37,0.20
2016,12,12,10,38,0.20
2016,12,12,10,39,0.20
2016,12,12,10,40,0.10
2016,12,12,10,41,0.10
2016,12,12,10,42,0.10
2016,12,12,10,43,0.10
2016,12,12,10,44,0.10
2016,12,12,10,45,0.10
2016,12,12,10,46,0.10
2016,12,12,10,47,0.10
2016,12,12,10,48,0.10
2016,12,12,10,49,0.10
2016,12,12,10,50,0.10
2016,12,12,10,51,0.20
2016,12,12,10,52,0.20
2016,12,12,10,53,0.20
2016,12,12,10,54,0.20
2016,12,12,10,55,0.20
2016,12,12,10,56,0.20
2016,12,12,10,57,0.20
2016,12,12,10,58,0.20
2016,12,12,10,59,0.20
2016,12,12,11,00,0.20
2016,12,12,11,01,0.20
2016,12,12,11,02,0.20
2016,12,12,11,03,0.20
2016,12,12,11,04,0.20
2016,12,12,11,05,0.20
2016,12,12,11,06,0.20
2016,12,12,11,07,0.20
2016,12,12,11,08,0.20
2016,12,12,11,09,0.20
2016,12,12,11,10,0.20
2016,12,12,11,11,0.20
2016,12,12,11,12,0.20
2016,12,12,11,13,0.20
2016,12,12,11,14,0.20
2016,12,12,11,15,0.20
2016,12,12,11,16,0.20
2016,12,12,11,17,0.20
2016,12,12,11,18,0.20
2016,12,12,11,19,0.20
2016,12,12,11,20,0.20
2016,12,12,11,21,0.20
2016,12,12,11,22,0.10
2016,12,12,11,23,0.10
2016,12,12,11,24,0.10
2016,12,12,11,25,0.10
2016,12,12,11,26,0.10
2016,12,12,11,27,0.10
2016,12,12,11,28,0.00
2016,12,12,11,29,0.00
2016,12,12,11,30,0.00
2016,12,12,11,31,0.10
2016,12,12,11,32,0.00
2016,12,12,11,33,0.10
2016,12,12,11,34,0.10
2016,12,12,11,35,0.10
2016,12,12,11,36,0.10
2016,12,12,11,37,0.10
2016,12,12,11,38,0.20
2016,12,12,11,39,0.20
2016,12,12,11,40,0.20
2016,12,12,11,41,0.20
2016,12,12,11,42,0.20
2016,12,12,11,43,0.30
2016,12,12,11,44,0.20
2016,12,12,11,45,0.30
2016,12,12,11,46,0.30
2016,12,12,11,47,0.30
2016,12,12,11,48,0.30
2016,12,12,11,49,0.30
2016,12,12,11,50,0.30
2016,12,12,11,51,0.30
2016,12,12,11,52,0.30
2016,12,12,11,53,0.30
2016,12,12,11,54,0.30
2016,12,12,11,55,0.40
2016,12,12,11,56,0.40
2016,12,12,11,57,0.40
2016,12,12,11,58,0.40
2016,12,12,11,59,0.40
2016,12,12,12,00,0.50
2016,12,12,12,01,0.50
2016,12,12,12,02,0.50
2016,12,12,12,03,0.50
2016,12,12,12,04,0.50
2016,12,12,12,05,0.60
2016,12,12,12,06,0.60
2016,12,12,12,07,0.60
2016,12,12,12,08,0.60
2016,12,12,12,09,0.60
2016,12,12,12,10,0.60
2016,12,12,12,11,0.60
2016,12,12,12,12,0.70
2016,12,12,12,13,0.60
2016,12,12,12,14,0.60
2016,12,12,12,15,0.60
2016,12,12,12,16,0.60
2016,12,12,12,17,0.60
2016,12,12,12,18,0.60
2016,12,12,12,19,0.60
2016,12,12,12,20,0.60
2016,12,12,12,21,0.60
2016,12,12,12,22,0.60
2016,12,12,12,23,0.60
2016,12,12,12,24,0.60
2016,12,12,12,25,0.60
2016,12,12,12,26,0.50
2016,12,12,12,27,0.50
2016,12,12,12,28,0.50
2016,12,12,12,29,0.50
2016,12,12,12,30,0.50
2016,12,12,12,31,0.60
2016,12,12,12,32,0.60
2016,12,12,12,33,0.70
2016,12,12,12,34,0.70
2016,12,12,12,35,0.70
2016,12,12,12,36,0.70
2016,12,12,12,37,0.70
2016,12,12,12,38,0.80
2016,12,12,12,39,0.80
2016,12,12,12,40,0.80
2016,12,12,12,41,0.80
2016,12,12,12,42,0.80
2016,12,12,12,43,0.80
2016,12,12,12,44,0.70
2016,12,12,12,45,0.70
2016,12,12,12,46,0.70
2016,12,12,12,47,0.70
2016,12,12,12,48,0.70
2016,12,12,12,49,0.60
2016,12,12,12,50,0.60
2016,12,12,12,51,0.60
2016,12,12,12,52,0.60
2016,12,12,12,53,0.60
2016,12,12,12,54,0.60
2016,12,12,12,55,0.50
2016,12,12,12,56,0.50
2016,12,12,12,57,0.50
2016,12,12,12,58,0.50
2016,12,12,12,59,0.50
2016,12,12,13,00,0.50
2016,12,12,13,01,0.50
2016,12,12,13,02,0.50
2016,12,12,13,03,0.50
2016,12,12,13,04,0.40
2016,12,12,13,05,0.40
2016,12,12,13,06,0.40
2016,12,12,13,07,0.40
2016,12,12,13,08,0.40
2016,12,12,13,09,0.40
2016,12,12,13,10,0.40
2016,12,12,13,11,0.40
2016,12,12,13,12,0.40
2016,12,12,13,13,0.40
2016,12,12,13,14,0.50
2016,12,12,13,15,0.50
2016,12,12,13,16,0.50
2016,12,12,13,17,0.50
2016,12,12,13,18,0.50
2016,12,12,13,19,0.50
2016,12,12,13,20,0.50
2016,12,12,13,21,0.50
2016,12,12,13,22,0.60
2016,12,12,13,23,0.60
2016,12,12,13,24,0.60
2016,12,12,13,25,0.60
2016,12,12,13,26,0.60
2016,12,12,13,27,0.60
2016,12,12,13,28,0.60
2016,12,12,13,29,0.60
2016,12,12,13,30,0.60
2016,12,12,13,31,0.70
2016,12,12,13,32,0.70
2016,12,12,13,33,0.70
2016,12,12,13,34,0.70
2016,12,12,13,35,0.70
2016,12,12,13,36,0.70
2016,12,12,13,37,0.70
2016,12,12,13,38,0.70
2016,12,12,13,39,0.70
2016,12,12,13,40,0.70
2016,12,12,13,41,0.70
2016,12,12,13,42,0.70
2016,12,12,13,43,0.70
2016,12,12,13,44,0.70
2016,12,12,13,45,0.70
2016,12,12,13,46,0.80
2016,12,12,13,47,0.80
2016,12,12,13,48,0.80
2016,12,12,13,49,0.80
2016,12,12,13,50,0.80
2016,12,12,13,51,0.80
2016,12,12,13,52,0.80
2016,12,12,13,53,0.80
2016,12,12,13,54,0.80
2016,12,12,13,55,0.80
2016,12,12,13,56,0.80
2016,12,12,13,57,0.90
2016,12,12,13,58,0.90
2016,12,12,13,59,0.90
2016,12,12,14,00,0.90
2016,12,12,14,01,0.90
2016,12,12,14,02,1.00
2016,12,12,14,03,1.00
2016,12,12,14,04,1.00
2016,12,12,14,05,1.00
2016,12,12,14,06,1.10
2016,12,12,14,07,1.10
2016,12,12,14,08,1.10
2016,12,12,14,09,1.20
2016,12,12,14,10,1.20
2016,12,12,14,11,1.20
2016,12,12,14,12,1.30
2016,12,12,14,13,1.30
2016,12,12,14,14,1.40
2016,12,12,14,15,1.40
2016,12,12,14,16,1.50
2016,12,12,14,17,1.50
2016,12,12,14,18,1.50
2016,12,12,14,19,1.60
2016,12,12,14,20,1.60
2016,12,12,14,21,1.60
2016,12,12,14,22,1.60
2016,12,12,14,23,1.60
2016,12,12,14,24,1.60
2016,12,12,14,25,1.70
2016,12,12,14,26,1.70
2016,12,12,14,27,1.70
2016,12,12,14,28,1.70
2016,12,12,14,29,1.60
2016,12,12,14,30,1.60
2016,12,12,14,31,1.60
2016,12,12,14,32,1.60
2016,12,12,14,33,1.60
2016,12,12,14,34,1.60
2016,12,12,14,35,1.60
2016,12,12,14,36,1.60
2016,12,12,14,37,1.60
2016,12,12,14,38,1.60
2016,12,12,14,39,1.60
2016,12,12,14,40,1.60
2016,12,12,14,41,1.50
2016,12,12,14,42,1.50
2016,12,12,14,43,1.50
2016,12,12,14,44,1.50
2016,12,12,14,45,1.50
2016,12,12,14,46,1.50
2016,12,12,14,47,1.40
2016,12,12,14,48,1.40
2016,12,12,14,49,1.40
2016,12,12,14,50,1.40
2016,12,12,14,51,1.40
2016,12,12,14,52,1.40
2016,12,12,14,53,1.40
2016,12,12,14,54,1.40
2016,12,12,14,55,1.40
2016,12,12,14,56,1.40
2016,12,12,14,57,1.40
2016,12,12,14,58,1.40
2016,12,12,14,59,1.40
2016,12,12,15,00,1.40
2016,12,12,15,01,1.30
2016,12,12,15,02,1.30
2016,12,12,15,03,1.30
2016,12,12,15,04,1.30
2016,12,12,15,05,1.30
2016,12,12,15,06,1.30
2016,12,12,15,07,1.30
2016,12,12,15,08,1.30
2016,12,12,15,09,1.30
2016,12,12,15,10,1.30
2016,12,12,15,11,1.30
2016,12,12,15,12,1.30
2016,12,12,15,13,1.30
2016,12,12,15,14,1.30
2016,12,12,15,15,1.30
2016,12,12,15,16,1.30
2016,12,12,15,17,1.30
2016,12,12,15,18,1.20
2016,12,12,15,19,1.20
2016,12,12,15,20,1.20
2016,12,12,15,21,1.20
2016,12,12,15,22,1.20
2016,12,12,15,23,1.20
2016,12,12,15,24,1.10
2016,12,12,15,25,1.10
2016,12,12,15,26,1.10
2016,12,12,15,27,1.10
2016,12,12,15,28,1.10
2016,12,12,15,29,1.10
2016,12,12,15,30,1.10
2016,12,12,15,31,1.10
2016,12,12,15,32,1.10
2016,12,12,15,33,1.10
2016,12,12,15,34,1.10
2016,12,12,15,35,1.00
2016,12,12,15,36,1.00
2016,12,12,15,37,1.00
2016,12,12,15,38,1.00
2016,12,12,15,39,1.00
2016,12,12,15,40,1.00
2016,12,12,15,41,1.00
2016,12,12,15,42,1.00
2016,12,12,15,43,1.00
2016,12,12,15,44,0.90
2016,12,12,15,45,0.90
2016,12,12,15,46,0.90
2016,12,12,15,47,1.00
2016,12,12,15,48,1.00
2016,12,12,15,49,0.90
2016,12,12,15,50,0.90
2016,12,12,15,51,0.90
2016,12,12,15,52,0.90
2016,12,12,15,53,1.00
2016,12,12,15,54,1.00
2016,12,12,15,55,1.00
2016,12,12,15,56,1.00
2016,12,12,15,57,1.00
2016,12,12,15,58,1.00
2016,12,12,15,59,1.00
2016,12,12,16,00,1.00
2016,12,12,16,01,1.00
2016,12,12,16,02,1.00
2016,12,12,16,03,1.00
2016,12,12,16,04,1.00
2016,12,12,16,05,0.90
2016,12,12,16,06,0.90
2016,12,12,16,07,0.90
2016,12,12,16,08,0.90
2016,12,12,16,09,0.90
2016,12,12,16,10,0.90
2016,12,12,16,11,0.90
2016,12,12,16,12,0.90
2016,12,12,16,13,0.90
2016,12,12,16,14,0.90
2016,12,12,16,15,0.90
2016,12,12,16,16,0.90
2016,12,12,16,17,0.90
2016,12,12,16,18,0.90
2016,12,12,16,19,0.90
2016,12,12,16,20,0.80
2016,12,12,16,21,0.80
2016,12,12,16,22,0.80
2016,12,12,16,23,0.90
2016,12,12,16,24,0.90
2016,12,12,16,25,0.90
2016,12,12,16,26,0.90
2016,12,12,16,27,0.90
2016,12,12,16,28,0.90
2016,12,12,16,29,0.90
2016,12,12,16,30,0.90
2016,12,12,16,31,0.90
2016,12,12,16,32,0.90
2016,12,12,16,33,0.90
2016,12,12,16,34,0.90
2016,12,12,16,35,0.90
2016,12,12,16,36,0.90
2016,12,12,16,37,0.90
2016,12,12,16,38,0.90
2016,12,12,16,39,0.90
2016,12,12,16,40,0.90
2016,12,12,16,41,0.90
2016,12,12,16,42,0.90
2016,12,12,16,43,0.90
2016,12,12,16,44,0.90
2016,12,12,16,45,0.90
2016,12,12,16,46,0.90
2016,12,12,16,47,0.90
2016,12,12,16,48,0.90
2016,12,12,16,49,0.90
2016,12,12,16,50,1.00
2016,12,12,16,51,1.00
2016,12,12,16,52,1.00
2016,12,12,16,53,1.00
2016,12,12,16,54,1.00
2016,12,12,16,55,1.00
2016,12,12,16,56,1.00
2016,12,12,16,57,1.00
2016,12,12,16,58,1.00
2016,12,12,16,59,1.00
2016,12,12,17,00,1.00
2016,12,12,17,01,1.00
2016,12,12,17,02,0.90
2016,12,12,17,03,1.00
2016,12,12,17,04,0.90
2016,12,12,17,05,0.90
2016,12,12,17,06,0.90
2016,12,12,17,07,0.90
2016,12,12,17,08,0.90
2016,12,12,17,09,0.90
2016,12,12,17,10,0.90
2016,12,12,17,11,0.90
2016,12,12,17,12,0.90
2016,12,12,17,13,1.00
2016,12,12,17,14,1.00
2016,12,12,17,15,1.00
2016,12,12,17,16,1.00
2016,12,12,17,17,1.00
2016,12,12,17,18,1.00
2016,12,12,17,19,1.00
2016,12,12,17,20,1.00
2016,12,12,17,21,1.00
2016,12,12,17,22,1.00
2016,12,12,17,23,1.00
2016,12,12,17,24,1.00
2016,12,12,17,25,1.00
2016,12,12,17,26,1.00
2016,12,12,17,27,1.00
2016,12,12,17,28,1.00
2016,12,12,17,29,1.00
2016,12,12,17,30,1.00
2016,12,12,17,31,1.00
2016,12,12,17,32,1.00
2016,12,12,17,33,1.00
2016,12,12,17,34,1.00
2016,12,12,17,35,1.00
2016,12,12,17,36,1.00
2016,12,12,17,37,1.00
2016,12,12,17,38,1.00
2016,12,12,17,39,1.00
2016,12,12,17,40,1.00
2016,12,12,17,41,1.00
2016,12,12,17,42,1.00
2016,12,12,17,43,1.00
2016,12,12,17,44,1.00
2016,12,12,17,45,1.00
2016,12,12,17,46,1.00
2016,12,12,17,47,1.00
2016,12,12,17,48,1.00
2016,12,12,17,49,1.10
2016,12,12,17,50,1.10
2016,12,12,17,51,1.10
2016,12,12,17,52,1.00
2016,12,12,17,53,1.00
2016,12,12,17,54,1.00
2016,12,12,17,55,1.10
2016,12,12,17,56,1.10
2016,12,12,17,57,1.10
2016,12,12,17,58,1.10
2016,12,12,17,59,1.10
2016,12,12,18,00,1.10
2016,12,12,18,01,1.00
2016,12,12,18,02,1.00
2016,12,12,18,03,1.00
2016,12,12,18,04,1.00
2016,12,12,18,05,1.00
2016,12,12,18,06,1.00
2016,12,12,18,07,1.10
2016,12,12,18,08,1.00
2016,12,12,18,09,1.10
2016,12,12,18,10,1.10
2016,12,12,18,11,1.10
2016,12,12,18,12,1.10
2016,12,12,18,13,1.10
2016,12,12,18,14,1.00
2016,12,12,18,15,1.00
2016,12,12,18,16,1.00
2016,12,12,18,17,1.00
2016,12,12,18,18,1.00
2016,12,12,18,19,1.00
2016,12,12,18,20,1.00
2016,12,12,18,21,1.10
2016,12,12,18,22,1.10
2016,12,12,18,23,1.00
2016,12,12,18,24,1.00
2016,12,12,18,25,1.00
2016,12,12,18,26,1.00
2016,12,12,18,27,1.00
2016,12,12,18,28,1.00
2016,12,12,18,29,1.00
2016,12,12,18,30,1.00
2016,12,12,18,31,1.00
2016,12,12,18,32,0.90
2016,12,12,18,33,0.90
2016,12,12,18,34,0.90
2016,12,12,18,35,0.90
2016,12,12,18,36,0.90
2016,12,12,18,37,0.90
2016,12,12,18,38,0.90
2016,12,12,18,39,0.90
2016,12,12,18,40,0.90
2016,12,12,18,41,0.90
2016,12,12,18,42,0.90
2016,12,12,18,43,0.90
2016,12,12,18,44,1.00
2016,12,12,18,45,0.90
2016,12,12,18,46,1.00
2016,12,12,18,47,1.00
2016,12,12,18,48,1.00
2016,12,12,18,49,1.00
2016,12,12,18,50,1.00
2016,12,12,18,51,1.00
2016,12,12,18,52,1.00
2016,12,12,18,53,1.10
2016,12,12,18,54,1.10
2016,12,12,18,55,1.10
2016,12,12,18,56,1.10
2016,12,12,18,57,1.10
2016,12,12,18,58,1.10
2016,12,12,18,59,1.10
2016,12,12,19,00,1.10
2016,12,12,19,01,1.00
2016,12,12,19,02,1.00
2016,12,12,19,03,1.00
2016,12,12,19,04,1.00
2016,12,12,19,05,1.00
2016,12,12,19,06,1.00
2016,12,12,19,07,1.00
2016,12,12,19,08,1.00
2016,12,12,19,09,0.90
2016,12,12,19,10,0.90
2016,12,12,19,11,0.90
2016,12,12,19,12,0.90
2016,12,12,19,13,0.90
2016,12,12,19,14,0.90
2016,12,12,19,15,0.90
2016,12,12,19,16,0.90
2016,12,12,19,17,0.90
2016,12,12,19,18,0.90
2016,12,12,19,19,0.90
2016,12,12,19,20,1.00
2016,12,12,19,21,1.00
2016,12,12,19,22,1.00
2016,12,12,19,23,1.10
2016,12,12,19,24,1.10
2016,12,12,19,25,1.10
2016,12,12,19,26,1.10
2016,12,12,19,27,1.10
2016,12,12,19,28,1.00
2016,12,12,19,29,1.00
2016,12,12,19,30,1.00
2016,12,12,19,31,0.90
2016,12,12,19,32,0.90
2016,12,12,19,33,0.90
2016,12,12,19,34,0.90
2016,12,12,19,35,0.90
2016,12,12,19,36,0.90
2016,12,12,19,37,0.90
2016,12,12,19,38,0.90
2016,12,12,19,39,0.80
2016,12,12,19,40,0.80
2016,12,12,19,41,0.80
2016,12,12,19,42,0.80
2016,12,12,19,43,0.80
2016,12,12,19,44,0.80
2016,12,12,19,45,0.80
2016,12,12,19,46,0.80
2016,12,12,19,47,0.80
2016,12,12,19,48,0.80
2016,12,12,19,49,0.90
2016,12,12,19,50,0.90
2016,12,12,19,51,0.90
2016,12,12,19,52,0.90
2016,12,12,19,53,0.90
2016,12,12,19,54,0.90
2016,12,12,19,55,0.90
2016,12,12,19,56,0.90
2016,12,12,19,57,0.80
2016,12,12,19,58,0.80
2016,12,12,19,59,0.80
2016,12,12,20,00,0.80
2016,12,12,20,01,0.80
2016,12,12,20,02,0.80
2016,12,12,20,03,0.80
2016,12,12,20,04,0.80
2016,12,12,20,05,0.80
2016,12,12,20,06,0.80
2016,12,12,20,07,0.80
2016,12,12,20,08,0.80
2016,12,12,20,09,0.80
2016,12,12,20,10,0.80
2016,12,12,20,11,0.80
2016,12,12,20,12,0.70
2016,12,12,20,13,0.70
2016,12,12,20,14,0.70
2016,12,12,20,15,0.70
2016,12,12,20,16,0.70
2016,12,12,20,17,0.70
2016,12,12,20,18,0.70
2016,12,12,20,19,0.60
2016,12,12,20,20,0.60
2016,12,12,20,21,0.70
2016,12,12,20,22,0.70
2016,12,12,20,23,0.70
2016,12,12,20,24,0.70
2016,12,12,20,25,0.70
2016,12,12,20,26,0.70
2016,12,12,20,27,0.70
2016,12,12,20,28,0.70
2016,12,12,20,29,0.70
2016,12,12,20,30,0.70
2016,12,12,20,31,0.70
2016,12,12,20,32,0.70
2016,12,12,20,33,0.70
2016,12,12,20,34,0.70
2016,12,12,20,35,0.70
2016,12,12,20,36,0.70
2016,12,12,20,37,0.70
2016,12,12,20,38,0.70
2016,12,12,20,39,0.70
2016,12,12,20,40,0.70
2016,12,12,20,41,0.70
2016,12,12,20,42,0.70
2016,12,12,20,43,0.70
2016,12,12,20,44,0.70
2016,12,12,20,45,0.70
2016,12,12,20,46,0.70
2016,12,12,20,47,0.70
2016,12,12,20,48,0.70
2016,12,12,20,49,0.70
2016,12,12,20,50,0.70
2016,12,12,20,51,0.70
2016,12,12,20,52,0.70
2016,12,12,20,53,0.70
2016,12,12,20,54,0.70
2016,12,12,20,55,0.70
2016,12,12,20,56,0.80
2016,12,12,20,57,0.80
2016,12,12,20,58,0.80
2016,12,12,20,59,0.70
2016,12,12,21,00,0.70
2016,12,12,21,01,0.80
2016,12,12,21,02,0.80
2016,12,12,21,03,0.80
2016,12,12,21,04,0.80
2016,12,12,21,05,0.80
2016,12,12,21,06,0.80
2016,12,12,21,07,0.80
2016,12,12,21,08,0.80
2016,12,12,21,09,0.80
2016,12,12,21,10,0.80
2016,12,12,21,11,0.80
2016,12,12,21,12,0.80
2016,12,12,21,13,0.80
2016,12,12,21,14,0.80
2016,12,12,21,15,0.70
2016,12,12,21,16,0.70
2016,12,12,21,17,0.80
2016,12,12,21,18,0.80
2016,12,12,21,19,0.80
2016,12,12,21,20,0.80
2016,12,12,21,21,0.80
2016,12,12,21,22,0.80
2016,12,12,21,23,0.80
2016,12,12,21,24,0.80
2016,12,12,21,25,0.80
2016,12,12,21,26,0.80
2016,12,12,21,27,0.70
2016,12,12,21,28,0.70
2016,12,12,21,29,0.70
2016,12,12,21,30,0.70
2016,12,12,21,31,0.70
2016,12,12,21,32,0.70
2016,12,12,21,33,0.70
2016,12,12,21,34,0.70
2016,12,12,21,35,0.70
2016,12,12,21,36,0.70
2016,12,12,21,37,0.70
2016,12,12,21,38,0.70
2016,12,12,21,39,0.70
2016,12,12,21,40,0.70
2016,12,12,21,41,0.70
2016,12,12,21,42,0.70
2016,12,12,21,43,0.70
2016,12,12,21,44,0.70
2016,12,12,21,45,0.70